Time,TemperatureF,DewpointF,PressureIn,WindDirection,WindDirectionDegrees,WindSpeedMPH,WindSpeedGustMPH,Humidity,HourlyPrecipIn,Conditions,Clouds,dailyrainin,SoftwareType,DateUTC
2013-02-07 00:02:00,19.0,6.0,30.46,South,186,0.0,3.0,56,0.00,,,0.00,,2013-02-07 05:02:00,
2013-02-07 00:12:00,19.0,6.0,30.46,South,186,0.0,3.0,56,0.00,,,0.00,,2013-02-07 05:12:00,
2013-02-07 00:21:00,19.0,6.0,30.47,SW,224,0.0,1.0,55,0.00,,,0.00,,2013-02-07 05:21:00,
2013-02-07 00:32:00,18.0,5.0,30.47,SW,229,0.0,1.0,55,0.00,,,0.00,,2013-02-07 05:32:00,
2013-02-07 00:42:00,18.0,5.0,30.47,SW,229,0.0,1.0,55,0.00,,,0.00,,2013-02-07 05:42:00,
2013-02-07 00:52:00,18.0,5.0,30.47,NNE,13,0.0,1.0,57,0.00,,,0.00,,2013-02-07 05:52:00,
2013-02-07 01:02:00,17.0,4.0,30.47,ESE,120,0.0,1.0,56,0.00,,,0.00,,2013-02-07 06:02:00,
2013-02-07 01:11:00,17.0,4.0,30.47,ESE,120,0.0,1.0,56,0.00,,,0.00,,2013-02-07 06:11:00,
2013-02-07 01:22:00,17.0,4.0,30.48,ESE,122,0.0,1.0,55,0.00,,,0.00,,2013-02-07 06:22:00,
2013-02-07 01:32:00,16.0,4.0,30.48,ESE,122,0.0,0.0,58,0.00,,,0.00,,2013-02-07 06:32:00,
2013-02-07 01:43:00,16.0,4.0,30.48,ESE,122,0.0,0.0,58,0.00,,,0.00,,2013-02-07 06:43:00,
2013-02-07 01:52:00,16.0,4.0,30.48,ESE,122,0.0,0.0,58,0.00,,,0.00,,2013-02-07 06:52:00,
2013-02-07 02:02:00,15.0,4.0,30.49,ESE,122,0.0,1.0,61,0.00,,,0.00,,2013-02-07 07:02:00,
2013-02-07 02:11:00,15.0,4.0,30.49,ESE,122,0.0,1.0,61,0.00,,,0.00,,2013-02-07 07:11:00,
2013-02-07 02:22:00,14.0,4.0,30.50,ESE,122,0.0,0.0,64,0.00,,,0.00,,2013-02-07 07:22:00,
2013-02-07 02:32:00,14.0,4.0,30.49,ESE,122,0.0,1.0,64,0.00,,,0.00,,2013-02-07 07:32:00,
2013-02-07 02:42:00,14.0,4.0,30.49,ESE,122,0.0,1.0,64,0.00,,,0.00,,2013-02-07 07:42:00,
2013-02-07 02:52:00,14.0,4.0,30.49,WSW,252,0.0,1.0,63,0.00,,,0.00,,2013-02-07 07:52:00,
2013-02-07 03:02:00,15.0,3.0,30.49,SSE,160,0.0,2.0,59,0.00,,,0.00,,2013-02-07 08:02:00,
2013-02-07 03:11:00,15.0,3.0,30.49,SSE,160,0.0,2.0,59,0.00,,,0.00,,2013-02-07 08:11:00,
2013-02-07 03:22:00,15.0,2.0,30.49,SW,225,0.0,2.0,56,0.00,,,0.00,,2013-02-07 08:22:00,
2013-02-07 03:32:00,15.0,2.0,30.50,South,187,0.0,2.0,56,0.00,,,0.00,,2013-02-07 08:32:00,
2013-02-07 03:42:00,15.0,2.0,30.50,South,187,0.0,2.0,56,0.00,,,0.00,,2013-02-07 08:42:00,
2013-02-07 03:52:00,14.0,1.0,30.52,WSW,250,0.0,1.0,55,0.00,,,0.00,,2013-02-07 08:52:00,
2013-02-07 04:02:00,14.0,2.0,30.52,WSW,250,0.0,1.0,57,0.00,,,0.00,,2013-02-07 09:02:00,
2013-02-07 04:11:00,14.0,2.0,30.52,WSW,250,0.0,1.0,57,0.00,,,0.00,,2013-02-07 09:11:00,
2013-02-07 04:21:00,13.0,1.0,30.54,WSW,250,0.0,0.0,59,0.00,,,0.00,,2013-02-07 09:21:00,
2013-02-07 04:32:00,12.0,1.0,30.55,WSW,250,0.0,0.0,61,0.00,,,0.00,,2013-02-07 09:32:00,
2013-02-07 04:42:00,12.0,1.0,30.55,WSW,250,0.0,0.0,61,0.00,,,0.00,,2013-02-07 09:42:00,
2013-02-07 04:52:00,12.0,2.0,30.56,WSW,250,0.0,0.0,63,0.00,,,0.00,,2013-02-07 09:52:00,
2013-02-07 05:02:00,11.0,2.0,30.56,WSW,250,0.0,0.0,65,0.00,,,0.00,,2013-02-07 10:02:00,
2013-02-07 05:11:00,11.0,2.0,30.56,WSW,250,0.0,0.0,65,0.00,,,0.00,,2013-02-07 10:11:00,
2013-02-07 05:22:00,11.0,2.0,30.56,WSW,250,0.0,0.0,67,0.00,,,0.00,,2013-02-07 10:22:00,
2013-02-07 05:32:00,11.0,2.0,30.56,WSW,250,0.0,0.0,66,0.00,,,0.00,,2013-02-07 10:32:00,
2013-02-07 05:42:00,11.0,2.0,30.56,WSW,250,0.0,0.0,66,0.00,,,0.00,,2013-02-07 10:42:00,
2013-02-07 05:51:00,11.0,2.0,30.57,WSW,250,0.0,0.0,67,0.00,,,0.00,,2013-02-07 10:51:00,
2013-02-07 06:02:00,10.0,2.0,30.57,WSW,251,0.0,1.0,69,0.00,,,0.00,,2013-02-07 11:02:00,
2013-02-07 06:11:00,10.0,2.0,30.57,WSW,251,0.0,1.0,69,0.00,,,0.00,,2013-02-07 11:11:00,
2013-02-07 06:23:00,10.0,2.0,30.57,WSW,250,0.0,0.0,70,0.00,,,0.00,,2013-02-07 11:23:00,
2013-02-07 06:32:00,9.0,2.0,30.58,WSW,250,0.0,0.0,71,0.00,,,0.00,,2013-02-07 11:32:00,
2013-02-07 06:44:00,9.0,2.0,30.58,WSW,250,0.0,0.0,71,0.00,,,0.00,,2013-02-07 11:44:00,
2013-02-07 06:52:00,9.0,1.0,30.58,WSW,250,0.0,0.0,70,0.00,,,0.00,,2013-02-07 11:52:00,
2013-02-07 07:02:00,9.0,2.0,30.59,WSW,250,0.0,1.0,73,0.00,,,0.00,,2013-02-07 12:02:00,
2013-02-07 07:12:00,9.0,2.0,30.59,WSW,250,0.0,1.0,73,0.00,,,0.00,,2013-02-07 12:12:00,
2013-02-07 07:22:00,9.0,2.0,30.61,WSW,250,0.0,0.0,73,0.00,,,0.00,,2013-02-07 12:22:00,
2013-02-07 07:33:00,9.0,2.0,30.63,WSW,250,0.0,0.0,74,0.00,,,0.00,,2013-02-07 12:33:00,
2013-02-07 07:42:00,9.0,2.0,30.63,WSW,250,0.0,0.0,74,0.00,,,0.00,,2013-02-07 12:42:00,
2013-02-07 07:53:00,9.0,2.0,30.63,WSW,250,0.0,0.0,74,0.00,,,0.00,,2013-02-07 12:53:00,
2013-02-07 08:03:00,10.0,3.0,30.64,WSW,248,0.0,1.0,74,0.00,,,0.00,,2013-02-07 13:03:00,
2013-02-07 08:12:00,10.0,3.0,30.64,WSW,248,0.0,1.0,74,0.00,,,0.00,,2013-02-07 13:12:00,
2013-02-07 08:22:00,11.0,4.0,30.65,WSW,250,0.0,0.0,73,0.00,,,0.00,,2013-02-07 13:22:00,
2013-02-07 08:32:00,13.0,2.0,30.66,West,266,1.0,2.0,61,0.00,,,0.00,,2013-02-07 13:32:00,
2013-02-07 08:42:00,13.0,2.0,30.66,West,266,1.0,2.0,61,0.00,,,0.00,,2013-02-07 13:42:00,
2013-02-07 08:52:00,14.0,1.0,30.66,SW,231,1.0,3.0,56,0.00,,,0.00,,2013-02-07 13:52:00,
2013-02-07 09:02:00,15.0,1.0,30.67,WSW,245,0.0,2.0,53,0.00,,,0.00,,2013-02-07 14:02:00,
2013-02-07 09:11:00,15.0,1.0,30.67,WSW,245,0.0,2.0,53,0.00,,,0.00,,2013-02-07 14:11:00,
2013-02-07 09:22:00,15.0,1.0,30.67,WSW,245,0.0,2.0,53,0.00,,,0.00,,2013-02-07 14:22:00,
2013-02-07 09:32:00,16.0,1.0,30.68,SW,228,0.0,2.0,50,0.00,,,0.00,,2013-02-07 14:32:00,
2013-02-07 09:42:00,16.0,1.0,30.68,SW,228,0.0,2.0,50,0.00,,,0.00,,2013-02-07 14:42:00,
2013-02-07 09:52:00,16.0,-1.0,30.68,WSW,256,1.0,4.0,47,0.00,,,0.00,,2013-02-07 14:52:00,
2013-02-07 10:02:00,17.0,0.0,30.68,SW,232,1.0,5.0,46,0.00,,,0.00,,2013-02-07 15:02:00,
2013-02-07 10:11:00,17.0,0.0,30.68,SW,232,1.0,5.0,46,0.00,,,0.00,,2013-02-07 15:11:00,
2013-02-07 10:22:00,17.0,1.0,30.69,West,259,1.0,4.0,48,0.00,,,0.00,,2013-02-07 15:22:00,
2013-02-07 10:32:00,18.0,1.0,30.70,South,170,1.0,6.0,46,0.00,,,0.00,,2013-02-07 15:32:00,
2013-02-07 10:42:00,18.0,1.0,30.70,South,170,1.0,6.0,46,0.00,,,0.00,,2013-02-07 15:42:00,
2013-02-07 10:52:00,19.0,0.0,30.70,SSE,162,1.0,6.0,43,0.00,,,0.00,,2013-02-07 15:52:00,
2013-02-07 11:01:00,19.0,0.0,30.70,WSW,240,1.0,4.0,42,0.00,,,0.00,,2013-02-07 16:01:00,
2013-02-07 11:11:00,19.0,0.0,30.70,WSW,240,1.0,4.0,42,0.00,,,0.00,,2013-02-07 16:11:00,
2013-02-07 11:22:00,20.0,0.0,30.71,West,274,2.0,6.0,41,0.00,,,0.00,,2013-02-07 16:22:00,
2013-02-07 11:32:00,20.0,0.0,30.70,WSW,243,1.0,5.0,41,0.00,,,0.00,,2013-02-07 16:32:00,
2013-02-07 11:42:00,20.0,0.0,30.70,WSW,243,1.0,5.0,41,0.00,,,0.00,,2013-02-07 16:42:00,
2013-02-07 11:52:00,20.0,1.0,30.70,SW,229,2.0,6.0,42,0.00,,,0.00,,2013-02-07 16:52:00,
2013-02-07 12:01:00,22.0,1.0,30.69,NE,51,1.0,4.0,39,0.00,,,0.00,,2013-02-07 17:01:00,
2013-02-07 12:11:00,22.0,1.0,30.69,NE,51,1.0,4.0,39,0.00,,,0.00,,2013-02-07 17:11:00,
2013-02-07 12:21:00,21.0,1.0,30.68,ENE,60,0.0,7.0,40,0.00,,,0.00,,2013-02-07 17:21:00,
2013-02-07 12:32:00,22.0,1.0,30.68,East,81,1.0,6.0,39,0.00,,,0.00,,2013-02-07 17:32:00,
2013-02-07 12:43:00,22.0,1.0,30.68,East,81,1.0,6.0,39,0.00,,,0.00,,2013-02-07 17:43:00,
2013-02-07 12:52:00,22.0,0.0,30.67,East,84,1.0,4.0,38,0.00,,,0.00,,2013-02-07 17:52:00,
2013-02-07 13:02:00,22.0,1.0,30.66,WSW,253,0.0,3.0,39,0.00,,,0.00,,2013-02-07 18:02:00,
2013-02-07 13:12:00,22.0,1.0,30.66,WSW,253,0.0,3.0,39,0.00,,,0.00,,2013-02-07 18:12:00,
2013-02-07 13:23:00,24.0,2.0,30.66,ENE,68,1.0,3.0,37,0.00,,,0.00,,2013-02-07 18:23:00,
2013-02-07 13:32:00,23.0,1.0,30.66,ENE,73,1.0,5.0,37,0.00,,,0.00,,2013-02-07 18:32:00,
2013-02-07 13:42:00,23.0,1.0,30.66,ENE,73,1.0,5.0,37,0.00,,,0.00,,2013-02-07 18:42:00,
2013-02-07 13:52:00,23.0,1.0,30.66,ENE,73,1.0,5.0,37,0.00,,,0.00,,2013-02-07 18:52:00,
2013-02-07 14:01:00,24.0,1.0,30.64,ESE,104,1.0,4.0,36,0.00,,,0.00,,2013-02-07 19:01:00,
2013-02-07 14:11:00,24.0,1.0,30.64,ESE,104,1.0,4.0,36,0.00,,,0.00,,2013-02-07 19:11:00,
2013-02-07 14:22:00,24.0,1.0,30.64,ESE,104,1.0,4.0,36,0.00,,,0.00,,2013-02-07 19:22:00,
2013-02-07 14:32:00,25.0,2.0,30.63,East,97,1.0,3.0,36,0.00,,,0.00,,2013-02-07 19:32:00,
2013-02-07 14:42:00,25.0,2.0,30.63,East,97,1.0,3.0,36,0.00,,,0.00,,2013-02-07 19:42:00,
2013-02-07 14:52:00,25.0,2.0,30.62,West,260,1.0,6.0,37,0.00,,,0.00,,2013-02-07 19:52:00,
2013-02-07 15:01:00,25.0,2.0,30.63,West,259,0.0,4.0,36,0.00,,,0.00,,2013-02-07 20:01:00,
2013-02-07 15:11:00,25.0,2.0,30.63,West,259,0.0,4.0,36,0.00,,,0.00,,2013-02-07 20:11:00,
2013-02-07 15:22:00,26.0,2.0,30.63,South,172,1.0,4.0,35,0.00,,,0.00,,2013-02-07 20:22:00,
2013-02-07 15:32:00,26.0,2.0,30.63,WSW,245,0.0,3.0,35,0.00,,,0.00,,2013-02-07 20:32:00,
2013-02-07 15:42:00,26.0,2.0,30.63,WSW,245,0.0,3.0,35,0.00,,,0.00,,2013-02-07 20:42:00,
2013-02-07 15:52:00,26.0,3.0,30.63,ENE,69,0.0,2.0,36,0.00,,,0.00,,2013-02-07 20:52:00,
2013-02-07 16:02:00,26.0,3.0,30.63,ENE,74,0.0,2.0,36,0.00,,,0.00,,2013-02-07 21:02:00,
2013-02-07 16:11:00,26.0,3.0,30.63,ENE,74,0.0,2.0,36,0.00,,,0.00,,2013-02-07 21:11:00,
2013-02-07 16:22:00,25.0,2.0,30.63,NE,53,0.0,1.0,36,0.00,,,0.00,,2013-02-07 21:22:00,
2013-02-07 16:32:00,25.0,2.0,30.63,NE,54,0.0,1.0,37,0.00,,,0.00,,2013-02-07 21:32:00,
2013-02-07 16:42:00,25.0,2.0,30.63,NE,54,0.0,1.0,37,0.00,,,0.00,,2013-02-07 21:42:00,
2013-02-07 16:52:00,25.0,2.0,30.62,South,174,0.0,1.0,36,0.00,,,0.00,,2013-02-07 21:52:00,
2013-02-07 17:02:00,25.0,2.0,30.62,SSW,203,0.0,0.0,36,0.00,,,0.00,,2013-02-07 22:02:00,
2013-02-07 17:11:00,25.0,2.0,30.62,SSW,203,0.0,0.0,36,0.00,,,0.00,,2013-02-07 22:11:00,
2013-02-07 17:22:00,25.0,2.0,30.62,East,89,0.0,0.0,36,0.00,,,0.00,,2013-02-07 22:22:00,
2013-02-07 17:32:00,25.0,2.0,30.62,East,89,0.0,0.0,37,0.00,,,0.00,,2013-02-07 22:32:00,
2013-02-07 17:42:00,25.0,2.0,30.62,East,89,0.0,0.0,37,0.00,,,0.00,,2013-02-07 22:42:00,
2013-02-07 17:52:00,24.0,2.0,30.63,East,89,0.0,0.0,38,0.00,,,0.00,,2013-02-07 22:52:00,
2013-02-07 18:02:00,24.0,2.0,30.63,ENE,71,0.0,0.0,38,0.00,,,0.00,,2013-02-07 23:02:00,
2013-02-07 18:11:00,24.0,2.0,30.63,ENE,71,0.0,0.0,38,0.00,,,0.00,,2013-02-07 23:11:00,
2013-02-07 18:22:00,24.0,3.0,30.64,ESE,117,0.0,1.0,39,0.00,,,0.00,,2013-02-07 23:22:00,
2013-02-07 18:32:00,24.0,3.0,30.64,ENE,77,1.0,2.0,39,0.00,,,0.00,,2013-02-07 23:32:00,
2013-02-07 18:42:00,24.0,3.0,30.64,ENE,77,1.0,2.0,39,0.00,,,0.00,,2013-02-07 23:42:00,
2013-02-07 18:52:00,24.0,3.0,30.65,ENE,62,0.0,1.0,39,0.00,,,0.00,,2013-02-07 23:52:00,
2013-02-07 19:02:00,24.0,3.0,30.65,East,95,0.0,2.0,40,0.00,,,0.00,,2013-02-08 00:02:00,
2013-02-07 19:11:00,24.0,3.0,30.65,East,95,0.0,2.0,40,0.00,,,0.00,,2013-02-08 00:11:00,
2013-02-07 19:22:00,24.0,3.0,30.65,ENE,67,1.0,2.0,40,0.00,,,0.00,,2013-02-08 00:22:00,
2013-02-07 19:32:00,24.0,3.0,30.64,ENE,74,1.0,2.0,40,0.00,,,0.00,,2013-02-08 00:32:00,
2013-02-07 19:42:00,24.0,3.0,30.64,ENE,74,1.0,2.0,40,0.00,,,0.00,,2013-02-08 00:42:00,
2013-02-07 19:52:00,24.0,3.0,30.64,ENE,58,2.0,5.0,40,0.00,,,0.00,,2013-02-08 00:52:00,
2013-02-07 20:02:00,23.0,2.0,30.64,ENE,68,1.0,5.0,39,0.00,,,0.00,,2013-02-08 01:02:00,
2013-02-07 20:11:00,23.0,2.0,30.64,ENE,68,1.0,5.0,39,0.00,,,0.00,,2013-02-08 01:11:00,
2013-02-07 20:21:00,23.0,2.0,30.65,ENE,65,1.0,5.0,39,0.00,,,0.00,,2013-02-08 01:21:00,
2013-02-07 20:32:00,23.0,2.0,30.64,SE,132,2.0,6.0,40,0.00,,,0.00,,2013-02-08 01:32:00,
2013-02-07 20:42:00,23.0,2.0,30.64,SE,132,2.0,6.0,40,0.00,,,0.00,,2013-02-08 01:42:00,
2013-02-07 20:51:00,23.0,2.0,30.64,ENE,75,2.0,5.0,40,0.00,,,0.00,,2013-02-08 01:51:00,
2013-02-07 21:01:00,22.0,1.0,30.64,East,85,2.0,5.0,40,0.00,,,0.00,,2013-02-08 02:01:00,
2013-02-07 21:11:00,22.0,1.0,30.64,East,85,2.0,5.0,40,0.00,,,0.00,,2013-02-08 02:11:00,
2013-02-07 21:22:00,22.0,1.0,30.64,East,94,1.0,5.0,40,0.00,,,0.00,,2013-02-08 02:22:00,
2013-02-07 21:32:00,22.0,1.0,30.64,ENE,71,2.0,5.0,40,0.00,,,0.00,,2013-02-08 02:32:00,
2013-02-07 21:42:00,22.0,1.0,30.64,ENE,71,2.0,5.0,40,0.00,,,0.00,,2013-02-08 02:42:00,
2013-02-07 21:52:00,22.0,1.0,30.64,East,96,2.0,5.0,40,0.00,,,0.00,,2013-02-08 02:52:00,
2013-02-07 22:02:00,22.0,1.0,30.64,ENE,70,2.0,4.0,40,0.00,,,0.00,,2013-02-08 03:02:00,
2013-02-07 22:12:00,22.0,1.0,30.64,ENE,70,2.0,4.0,40,0.00,,,0.00,,2013-02-08 03:12:00,
2013-02-07 22:22:00,22.0,1.0,30.64,ENE,70,2.0,4.0,40,0.00,,,0.00,,2013-02-08 03:22:00,
2013-02-07 22:32:00,22.0,2.0,30.63,ENE,72,1.0,4.0,41,0.00,,,0.00,,2013-02-08 03:32:00,
2013-02-07 22:42:00,22.0,2.0,30.63,ENE,72,1.0,4.0,41,0.00,,,0.00,,2013-02-08 03:42:00,
2013-02-07 22:52:00,22.0,2.0,30.63,SSE,148,1.0,5.0,41,0.00,,,0.00,,2013-02-08 03:52:00,
2013-02-07 23:02:00,22.0,1.0,30.63,East,89,1.0,3.0,40,0.00,,,0.00,,2013-02-08 04:02:00,
2013-02-07 23:11:00,22.0,1.0,30.63,East,89,1.0,3.0,40,0.00,,,0.00,,2013-02-08 04:11:00,
2013-02-07 23:21:00,22.0,1.0,30.63,East,81,2.0,3.0,40,0.00,,,0.00,,2013-02-08 04:21:00,
2013-02-07 23:32:00,22.0,1.0,30.64,East,93,0.0,3.0,40,0.00,,,0.00,,2013-02-08 04:32:00,
2013-02-07 23:42:00,22.0,1.0,30.64,East,93,0.0,3.0,40,0.00,,,0.00,,2013-02-08 04:42:00,
2013-02-07 23:51:00,22.0,1.0,30.63,East,86,0.0,1.0,40,0.00,,,0.00,,2013-02-08 04:51:00,